User: anonymous   Login
Location: Unspecified
(0.0000°N, 0.0000°E)
Time: 04:23:50
(UTC+00:00)
Language:

PLEIADES 1B - Orbit

View from above orbital plane
View from above orbital plane
View from above satellite
View from above satellite

Ground track
Ground track

The orbit data is extracted from the following two-line orbital elements,

1 39019U 12068A   17119.80762241 +.00000079 +00000-0 +26926-4 0  9993
2 39019 098.2035 195.6300 0001462 083.2764 276.8594 14.58549433234666
Epoch (UTC): 29 April 2017 19:22:58
Eccentricity: 0.0001462
inclination: 98.2035°
perigee height: 697 km
apogee height: 699 km
right ascension of ascending node: 195.6300°
argument of perigee: 83.2764°
revolutions per day: 14.58549433
mean anomaly at epoch: 276.8594°
orbit number at epoch: 23466

The dashed part of the orbit path shows where the satellite is in the earth's shadow,  

DLR